Total_Precipitation_Accumulation
0.00 0.00 0.00 0.00 0.00 0.00 0.00 0.00 0.00 0.01 0.01 0.01 0.02 0.06 0.13 0.24 0.29 0.30 0.28 0.20 0.21 0.27 0.33 0.50 0.72 0.96 1.22 1.38 1.42 1.51 1.63 1.80 1.97 2.26 2.52 2.66 2.74 2.97 3.07 3.14 3.26 3.24 3.18 3.26
0.00 0.00 0.00 0.00 0.00 0.00 0.00 0.00 0.01 0.02 0.02 0.02 0.05 0.12 0.20 0.27 0.26 0.32 0.35 0.28 0.28 0.36 0.50 0.78 1.04 1.41 1.59 1.64 1.63 1.70 1.79 2.01 2.26 2.61 3.00 3.41 3.60 3.76 3.75 3.77 3.95 4.05 4.07 4.19
0.00 0.00 0.00 0.00 0.00 0.00 0.00 0.01 0.02 0.03 0.04 0.05 0.09 0.26 0.36 0.39 0.39 0.42 0.47 0.50 0.50 0.61 0.83 1.04 1.24 1.37 1.55 1.67 1.76 1.85 2.12 2.50 2.94 3.39 3.85 4.24 4.52 4.57 4.51 4.26 4.28 4.40 4.39 4.43
0.00 0.00 0.00 0.00 0.01 0.01 0.01 0.01 0.01 0.02 0.04 0.08 0.10 0.35 0.62 0.67 0.65 0.56 0.55 0.55 0.54 0.65 0.85 1.00 1.20 1.41 1.53 1.67 1.85 1.97 2.28 2.80 3.26 3.71 4.33 4.81 5.07 5.23 5.33 5.12 4.82 4.64 4.48 4.36
0.01 0.00 0.00 0.01 0.01 0.01 0.01 0.01 0.01 0.01 0.03 0.08 0.09 0.27 0.71 0.83 0.88 0.77 0.63 0.58 0.49 0.47 0.60 0.77 0.93 1.26 1.52 1.61 1.67 1.77 2.17 2.75 3.47 4.17 4.68 5.14 5.49 5.61 5.54 5.19 4.82 4.42 4.10 3.71
0.01 0.01 0.01 0.01 0.01 0.01 0.01 0.01 0.01 0.02 0.04 0.11 0.12 0.23 0.70 1.04 1.17 1.15 0.81 0.60 0.49 0.39 0.43 0.52 0.65 0.91 1.23 1.33 1.50 1.75 2.09 2.78 3.53 4.12 4.59 4.93 5.25 5.27 4.99 4.58 4.12 3.81 3.43 3.01
0.03 0.02 0.01 0.01 0.01 0.01 0.01 0.02 0.10 0.17 0.19 0.20 0.18 0.32 0.77 0.99 0.94 0.88 0.73 0.58 0.54 0.39 0.39 0.44 0.52 0.70 0.96 1.16 1.45 1.82 2.21 2.74 3.20 3.69 4.10 4.31 4.47 4.50 4.42 4.17 3.80 3.51 3.13 2.71
0.09 0.06 0.02 0.01 0.01 0.01 0.01 0.03 0.16 0.25 0.27 0.30 0.35 0.62 1.06 0.92 0.70 0.70 0.65 0.53 0.49 0.47 0.47 0.54 0.65 0.79 0.94 1.08 1.28 1.64 1.98 2.40 2.64 2.87 3.19 3.41 3.52 3.54 3.44 3.28 3.02 2.71 2.41 2.15
0.12 0.11 0.04 0.01 0.01 0.01 0.01 0.02 0.06 0.09 0.16 0.33 0.60 0.97 1.37 1.32 0.89 0.69 0.64 0.52 0.46 0.43 0.43 0.55 0.67 0.76 0.84 0.93 1.12 1.29 1.48 1.75 2.02 2.25 2.40 2.50 2.54 2.45 2.38 2.21 1.99 1.80 1.62 1.42
0.12 0.11 0.06 0.02 0.02 0.02 0.02 0.04 0.05 0.09 0.24 0.50 0.71 1.10 1.58 1.63 1.21 0.95 0.73 0.58 0.51 0.44 0.46 0.54 0.59 0.64 0.68 0.72 0.86 1.00 1.16 1.30 1.48 1.62 1.66 1.60 1.60 1.58 1.45 1.33 1.24 1.10 0.95 0.83
0.18 0.17 0.09 0.03 0.04 0.05 0.05 0.05 0.07 0.10 0.15 0.44 0.78 1.23 1.56 1.80 1.64 1.34 0.98 0.72 0.59 0.57 0.53 0.52 0.52 0.52 0.51 0.52 0.63 0.73 0.82 0.97 1.08 1.12 1.13 1.05 0.99 0.92 0.85 0.79 0.78 0.70 0.63 0.60
0.15 0.22 0.17 0.09 0.07 0.06 0.06 0.07 0.09 0.17 0.21 0.29 0.63 1.44 1.77 2.02 1.91 1.61 1.19 0.88 0.73 0.65 0.58 0.51 0.46 0.42 0.41 0.44 0.48 0.54 0.62 0.67 0.70 0.69 0.66 0.63 0.60 0.58 0.57 0.55 0.54 0.54 0.52 0.49
0.11 0.25 0.39 0.41 0.32 0.13 0.09 0.10 0.11 0.15 0.21 0.32 0.64 1.47 1.78 1.74 1.68 1.60 1.37 1.08 0.87 0.73 0.59 0.53 0.50 0.44 0.43 0.45 0.45 0.43 0.46 0.50 0.51 0.49 0.49 0.46 0.46 0.47 0.49 0.51 0.50 0.49 0.48 0.45
0.06 0.24 0.56 0.80 0.74 0.34 0.21 0.15 0.15 0.16 0.30 0.41 0.65 1.11 1.42 1.47 1.45 1.57 1.58 1.26 0.95 0.76 0.64 0.64 0.64 0.59 0.52 0.47 0.47 0.43 0.43 0.43 0.46 0.45 0.43 0.39 0.37 0.38 0.40 0.41 0.41 0.41 0.41 0.43
0.09 0.27 0.30 0.30 0.31 0.28 0.27 0.21 0.20 0.20 0.23 0.46 0.75 1.05 1.44 1.64 1.55 1.51 1.44 1.19 0.93 0.82 0.79 0.78 0.74 0.66 0.59 0.55 0.53 0.50 0.49 0.47 0.47 0.49 0.51 0.48 0.43 0.40 0.40 0.41 0.44 0.43 0.38 0.35
0.09 0.24 0.25 0.25 0.21 0.25 0.29 0.30 0.32 0.36 0.40 0.52 0.84 1.30 1.74 1.82 1.66 1.57 1.49 1.32 1.15 1.06 1.00 0.94 0.86 0.78 0.74 0.71 0.67 0.63 0.60 0.58 0.57 0.58 0.60 0.61 0.59 0.56 0.52 0.47 0.42 0.37 0.31 0.25
0.10 0.23 0.34 0.39 0.24 0.34 0.59 0.49 0.42 0.48 0.55 0.70 1.08 1.38 1.51 1.58 1.62 1.64 1.66 1.56 1.36 1.24 1.14 1.10 1.06 0.98 0.92 0.87 0.83 0.79 0.74 0.69 0.68 0.68 0.67 0.66 0.63 0.57 0.48 0.37 0.30 0.26 0.23 0.20
0.09 0.22 0.33 0.39 0.43 0.80 0.77 0.44 0.43 0.55 0.64 0.74 0.90 1.05 1.15 1.17 1.24 1.29 1.36 1.39 1.31 1.20 1.14 1.11 1.09 1.08 1.04 0.96 0.88 0.84 0.79 0.74 0.70 0.70 0.66 0.61 0.53 0.45 0.36 0.29 0.25 0.22 0.21 0.22
0.06 0.17 0.33 0.41 0.60 0.77 0.73 0.42 0.38 0.68 1.08 0.89 0.84 0.79 0.73 0.70 0.77 1.02 1.15 1.15 1.19 1.23 1.25 1.19 1.12 1.03 1.00 0.95 0.88 0.85 0.84 0.79 0.70 0.64 0.55 0.46 0.38 0.33 0.27 0.24 0.22 0.21 0.20 0.18
0.08 0.14 0.33 0.45 0.70 0.95 0.93 0.40 0.27 0.56 1.30 1.08 0.89 0.79 0.73 0.79 0.91 0.96 0.95 0.94 1.00 1.06 1.06 0.99 0.90 0.81 0.78 0.79 0.76 0.70 0.67 0.62 0.54 0.43 0.35 0.31 0.30 0.28 0.26 0.23 0.21 0.20 0.19 0.17
0.30 0.31 0.40 0.55 0.81 1.02 0.53 0.20 0.32 0.88 1.22 1.05 0.88 0.77 0.75 0.92 0.91 0.71 0.66 0.71 0.75 0.80 0.79 0.73 0.69 0.71 0.70 0.63 0.53 0.49 0.44 0.40 0.34 0.28 0.26 0.24 0.23 0.21 0.22 0.23 0.22 0.21 0.20 0.20
0.42 0.49 0.56 0.68 0.93 1.04 0.41 0.24 0.49 0.66 0.61 0.69 0.69 0.65 0.62 0.58 0.47 0.44 0.44 0.48 0.51 0.53 0.54 0.52 0.54 0.56 0.53 0.43 0.38 0.37 0.34 0.28 0.23 0.24 0.26 0.25 0.21 0.16 0.19 0.27 0.26 0.24 0.25 0.26
0.38 0.45 0.55 0.69 0.86 0.71 0.36 0.28 0.32 0.37 0.50 0.49 0.46 0.42 0.33 0.30 0.27 0.29 0.31 0.32 0.34 0.36 0.40 0.43 0.41 0.39 0.39 0.37 0.36 0.36 0.33 0.26 0.25 0.28 0.31 0.27 0.21 0.19 0.22 0.26 0.27 0.25 0.26 0.23
0.40 0.29 0.33 0.46 0.57 0.45 0.35 0.28 0.26 0.27 0.33 0.30 0.30 0.29 0.22 0.21 0.24 0.27 0.29 0.26 0.27 0.31 0.33 0.35 0.34 0.33 0.34 0.34 0.35 0.36 0.31 0.29 0.34 0.39 0.34 0.26 0.24 0.23 0.24 0.23 0.20 0.19 0.20 0.17
0.41 0.33 0.30 0.43 0.50 0.46 0.45 0.28 0.21 0.20 0.18 0.18 0.23 0.22 0.18 0.16 0.21 0.23 0.25 0.26 0.27 0.28 0.29 0.31 0.33 0.32 0.28 0.26 0.27 0.26 0.29 0.33 0.43 0.42 0.33 0.26 0.23 0.22 0.22 0.18 0.12 0.09 0.08 0.06
0.26 0.30 0.30 0.37 0.36 0.41 0.46 0.29 0.18 0.21 0.20 0.19 0.18 0.18 0.20 0.18 0.19 0.20 0.22 0.25 0.26 0.23 0.24 0.28 0.29 0.27 0.24 0.23 0.23 0.22 0.26 0.30 0.38 0.39 0.28 0.21 0.17 0.16 0.14 0.14 0.13 0.07 0.03 0.02